Weather in Chernoyarskaya

Russia / Republic of North Ossetia — Alania     43°41′34″N   44°20′48″E
temp.,
°C
wind,
m/s
gust,
m/s
humid.,
%
clouds,
%
prec.,
mm/h
press.,
hPa
HPBL,
m
18 may, tue
tue1800:00+17wnw7148899 0.3 1008592
03:00+15wnw51192100 2.1 1009497
06:00+16wnw51286100 0.2 1011593
09:00+17nw4882100 0.2 1012571
12:00+21nw236253 0.0 10121189
15:00+23nnw225271 0.1 10111664
18:00+22nne226066 0.0 101154
21:00+17ene33730 0.0 101226
19 may, wed
wed1900:00+15ese22810 0.0 101114
03:00+14ese22880 0.0 101013
06:00+15e258586 0.0 1009141
09:00+20ene2366100 0.0 1009686
12:00+23nnw325845 0.1 10091342
15:00+18nnw121378100 0.3 1013879
18:00+14nw268699 4.0 1017335
21:00+14ssw2489100 4.0 1018104
20 may, thu
thu2000:00+14s238747 0.0 101774
03:00+12se118896 0.0 101710
06:00+13ese25885 0.0 1018145
09:00+19ese57625 0.0 10181152
12:00+22ese67470 0.0 10161416
15:00+23ese564619 0.0 10151373
18:00+22e36610 0.0 1015179
21:00+16ese410640 0.0 1016172
21 may, fri
fri2100:00+13ese33690 0.0 101533
03:00+12ene22760 0.0 101421
06:00+13e12770 0.0 101481
09:00+20e33601 0.0 1013453
12:00+25e45520 0.0 1012855
15:00+29e45430 0.0 10111224
18:00+24e611580 0.0 1011359
21:00+18ene410690 0.0 1012205
22 may, sat
sat2200:00+15ene33792 0.0 101245
03:00+13e22855 0.0 101118
06:00+15ene22812 0.0 101191
09:00+22ene34642 0.0 1010439
12:00+28e465185 0.0 1008825
15:00+32e4538100 0.0 10071357
18:00+26ene495990 0.0 1006218
21:00+20ne3562100 0.0 100783